Home   Weather   Itzehoe   Past weeks
Flag for Germany

Past Weather in Itzehoe, Schleswig-Holstein, Germany — Yesterday and Last 2 Weeks

Now
46 °F

Passing clouds.


Feels Like: 46 °F
Forecast: 67 / 49 °F
Wind: No wind

Location: Hohn

Current Time: Sep 20, 2019 at 3:29:51 am

Latest Report: Sep 20, 2019 at 2:20 am


Visibility: N/A

Pressure: 30.36 "Hg

Humidity: 93%

Dew Point: 45 °F

Location of ItzehoeLocation

Past Weather in Itzehoe — Graph

°F

Itzehoe Temperature Yesterday

Maximum temperature yesterday: 59 °F (at 2:20 pm)
Minimum temperature yesterday: 41 °F (at 5:20 am)
Average temperature yesterday: 50 °F

High & Low Weather Summary for the Past Weeks

 TemperatureHumidityPressure
High66 °F (Sep 8, 3:20 pm)100% (Sep 5, 2:20 am)30.54 "Hg (Sep 5, 2:20 am)
Low41 °F (Sep 8, 6:06 am)48% (Sep 19, 3:20 pm)29.77 "Hg (Sep 5, 5:20 am)
Average55 °F82%30.09 "Hg
* Reported Sep 5 2:20 am — Sep 20 2:20 am, Itzehoe. Weather by CustomWeather, © 2019

Note: Actual official high and low records may vary slightly from our data, if they occured in-between our weather recording intervals... More about our weather records

Advertising

Itzehoe Weather History for the Previous 24 Hours

Scroll right to see more
 ConditionsComfort  
Time TempWeatherWind HumidityBarometerVisibility
2:20 am
Fri, Sep 20
46 °FPassing clouds.No wind93%30.36 "HgN/A
1:20 am46 °FPassing clouds.No wind87%30.39 "HgN/A
12:20 am43 °FPartly cloudy.3 mph93%30.39 "HgN/A
11:20 pm
Thu, Sep 19
43 °FPassing clouds.3 mph93%30.39 "HgN/A
10:20 pm45 °FPassing clouds.3 mph87%30.39 "HgN/A
9:20 pm48 °FPassing clouds.3 mph82%30.39 "HgN/A
8:20 pm48 °FPassing clouds.3 mph82%30.39 "HgN/A
7:20 pm52 °FScattered clouds.8 mph72%30.36 "HgN/A
6:20 pm57 °FScattered clouds.13 mph55%30.36 "HgN/A
5:20 pm57 °FPassing clouds.14 mph59%30.36 "HgN/A
4:20 pm57 °FScattered clouds.15 mph51%30.36 "HgN/A
3:20 pm59 °FBroken clouds.13 mph48%30.36 "HgN/A
2:20 pm59 °FScattered clouds.12 mph55%30.36 "HgN/A
1:20 pm57 °FScattered clouds.12 mph55%30.36 "HgN/A
12:20 pm57 °FBroken clouds.13 mph59%30.36 "HgN/A
11:20 am55 °FBroken clouds.10 mph63%30.36 "HgN/A
10:20 am55 °FScattered clouds.8 mph67%30.33 "HgN/A
9:20 am52 °FPassing clouds.6 mph82%30.33 "HgN/A
8:20 am45 °FPassing clouds.5 mph100%30.30 "HgN/A
7:20 am43 °FPassing clouds.8 mph93%30.30 "HgN/A
6:20 am41 °FPassing clouds.7 mph100%30.30 "HgN/A
5:20 am41 °FPassing clouds.6 mph93%30.27 "HgN/A
4:20 am43 °FQuite cool.8 mph100%30.27 "HgN/A
3:20 am45 °FQuite cool.6 mph93%30.27 "HgN/A
Weather by CustomWeather, © 2019

See weather overview